| time (UTC) | temp F | wind direction | speed knots | gust knots | rain 1hr in | rain 24hr in | rain mn in | humidity % | barometer mb |
| 20260902112818 | 76 | 140 | 0.0 | 0.0 | 0.00 | 0.00 | 0.00 | 77 | 1013.1 |
| 20260902111755 | 76 | 140 | 0.0 | 0.0 | 0.00 | 0.00 | 0.00 | 76 | 1013.2 |
| 20260902110811 | 76 | 140 | 0.0 | 0.0 | 0.00 | 0.00 | 0.00 | 75 | 1013.2 |
| 20260902105819 | 77 | 140 | 0.0 | 0.0 | 0.00 | 0.00 | 0.00 | 75 | 1013.2 |
| 20260902104757 | 77 | 140 | 0.0 | 0.0 | 0.00 | 0.00 | 0.00 | 74 | 1013.1 |
| 20260902103751 | 77 | 140 | 0.0 | 0.0 | 0.00 | 0.00 | 0.00 | 73 | 1013.0 |
| 20260902102805 | 78 | 140 | 0.0 | 0.0 | 0.00 | 0.00 | 0.00 | 73 | 1012.9 |
| 20260902101801 | 78 | 140 | 0.0 | 0.0 | 0.00 | 0.00 | 0.00 | 71 | 1013.1 |
| 20260902100812 | 79 | 140 | 0.0 | 0.0 | 0.00 | 0.00 | 0.00 | 70 | 1013.1 |
| 20260902095740 | 79 | 140 | 0.0 | 0.0 | 0.00 | 0.00 | 0.00 | 70 | 1012.9 |
| 20260902094729 | 80 | 140 | 0.0 | 0.0 | 0.00 | 0.00 | 0.00 | 69 | 1013.0 |
| 20260902093711 | 81 | 140 | 0.0 | 0.0 | 0.00 | 0.00 | 0.00 | 67 | 1013.0 |
| 20260902091536 | 82 | 140 | 0.0 | 0.0 | 0.00 | 0.00 | 0.00 | 64 | 1013.0 |
| 20260902090510 | 83 | 140 | 0.0 | 0.0 | 0.00 | 0.00 | 0.00 | 63 | 1013.0 |
| 20260902085512 | 83 | 140 | 0.0 | 1.7 | 0.00 | 0.00 | 0.00 | 62 | 1013.0 |
| 20260902083354 | 84 | 166 | 0.0 | 0.0 | 0.00 | 0.00 | 0.00 | 61 | 1013.1 |
| 20260902082321 | 84 | 166 | 0.0 | 0.0 | 0.00 | 0.00 | 0.00 | 61 | 1013.2 |
| 20260902081254 | 84 | 166 | 0.0 | 0.0 | 0.00 | 0.00 | 0.00 | 60 | 1013.1 |
| 20260902080245 | 85 | 166 | 0.0 | 2.6 | 0.00 | 0.00 | 0.00 | 60 | 1013.0 |
| 20260902075208 | 85 | 107 | 0.0 | 2.6 | 0.00 | 0.00 | 0.00 | 59 | 1013.0 |
| 20260902074229 | 85 | 130 | 0.0 | 6.1 | 0.00 | 0.00 | 0.00 | 59 | 1013.1 |
| 20260902073244 | 86 | 133 | 0.0 | 4.3 | 0.00 | 0.00 | 0.00 | 59 | 1013.1 |
| 20260902072253 | 86 | 123 | 0.0 | 2.6 | 0.00 | 0.00 | 0.00 | 58 | 1013.1 |
| 20260902071252 | 86 | 162 | 0.0 | 2.6 | 0.00 | 0.00 | 0.00 | 58 | 1013.1 |
| 20260902070250 | 86 | 137 | 0.0 | 6.1 | 0.00 | 0.00 | 0.00 | 58 | 1013.2 |
| 20260902065306 | 86 | 177 | 0.0 | 4.3 | 0.00 | 0.00 | 0.00 | 58 | 1013.2 |
| 20260902064243 | 86 | 246 | 0.9 | 3.5 | 0.00 | 0.00 | 0.00 | 57 | 1013.1 |
| 20260902062045 | 87 | 144 | 0.0 | 0.9 | 0.00 | 0.00 | 0.00 | 57 | 1012.9 |
| 20260902061056 | 87 | 142 | 0.9 | 2.6 | 0.00 | 0.00 | 0.00 | 56 | 1012.8 |
| 20260902060033 | 87 | 148 | 0.0 | 3.5 | 0.00 | 0.00 | 0.00 | 55 | 1012.7 |
| 20260902054956 | 88 | 173 | 0.9 | 5.2 | 0.00 | 0.00 | 0.00 | 54 | 1012.6 |
| 20260902053927 | 88 | 151 | 0.9 | 5.2 | 0.00 | 0.00 | 0.00 | 53 | 1012.5 |
| 20260902052858 | 89 | 157 | 0.9 | 7.0 | 0.00 | 0.00 | 0.00 | 52 | 1012.5 |
| 20260902051838 | 89 | 182 | 1.7 | 7.0 | 0.00 | 0.00 | 0.00 | 52 | 1012.4 |
| 20260902045625 | 85 | 171 | 0.0 | 2.6 | 0.00 | 0.00 | 0.00 | 59 | 1012.2 |
| 20260902044610 | 85 | 171 | 0.0 | 0.0 | 0.00 | 0.00 | 0.00 | 59 | 1012.1 |
| 20260902043558 | 85 | 171 | 0.0 | 0.0 | 0.00 | 0.00 | 0.00 | 59 | 1012.2 |
| 20260902042554 | 85 | 171 | 0.0 | 0.0 | 0.00 | 0.00 | 0.00 | 58 | 1012.2 |
| 20260902041520 | 86 | 171 | 0.0 | 0.0 | 0.00 | 0.00 | 0.00 | 59 | 1012.2 |
| 20260902035358 | 86 | 171 | 0.0 | 0.0 | 0.00 | 0.00 | 0.00 | 57 | 1012.1 |
| 20260902034341 | 87 | 171 | 0.0 | 0.0 | 0.00 | 0.00 | 0.00 | 57 | 1012.2 |
| 20260902033353 | 87 | 171 | 0.0 | 0.0 | 0.00 | 0.00 | 0.00 | 57 | 1012.2 |
| 20260902032355 | 87 | 171 | 0.0 | 0.0 | 0.00 | 0.00 | 0.00 | 55 | 1012.1 |
| 20260902031413 | 88 | 171 | 0.0 | 0.0 | 0.00 | 0.00 | 0.00 | 54 | 1012.0 |
| 20260902030359 | 89 | 171 | 0.0 | 0.0 | 0.00 | 0.00 | 0.00 | 51 | 1011.8 |
| 20260902025403 | 90 | 171 | 0.0 | 0.0 | 0.00 | 0.00 | 0.00 | 49 | 1011.7 |
| 20260902024411 | 90 | 171 | 0.0 | 0.0 | 0.00 | 0.00 | 0.00 | 48 | 1011.6 |
| 20260902023414 | 91 | 171 | 0.0 | 0.0 | 0.00 | 0.00 | 0.00 | 47 | 1011.4 |
| 20260902022431 | 91 | 171 | 0.0 | 0.0 | 0.00 | 0.00 | 0.00 | 46 | 1011.3 |
| 20260902021442 | 91 | 142 | 0.0 | 0.9 | 0.00 | 0.00 | 0.00 | 46 | 1011.1 |
| 20260902020439 | 92 | 142 | 0.0 | 0.0 | 0.00 | 0.00 | 0.00 | 45 | 1011.0 |
| 20260902015403 | 92 | 142 | 0.0 | 0.0 | 0.00 | 0.00 | 0.00 | 44 | 1010.9 |
| 20260902014408 | 93 | 142 | 0.0 | 1.7 | 0.00 | 0.00 | 0.00 | 43 | 1010.7 |
| 20260902011147 | 94 | 142 | 0.0 | 0.0 | 0.00 | 0.00 | 0.00 | 41 | 1010.5 |
| 20260902010157 | 95 | 142 | 0.9 | 4.3 | 0.00 | 0.00 | 0.00 | 40 | 1010.5 |
| 20260902005217 | 95 | 125 | 0.9 | 3.5 | 0.00 | 0.00 | 0.00 | 40 | 1010.4 |
| 20260902004231 | 96 | 185 | 0.9 | 3.5 | 0.00 | 0.00 | 0.00 | 39 | 1010.5 |
| 20260902003233 | 97 | 163 | 0.9 | 3.5 | 0.00 | 0.00 | 0.00 | 39 | 1010.5 |
| 20260902002224 | 97 | 248 | 0.9 | 3.5 | 0.00 | 0.00 | 0.00 | 37 | 1010.6 |
| 20260902001210 | 98 | 206 | 0.0 | 3.5 | 0.00 | 0.00 | 0.00 | 35 | 1010.6 |
| 20260901235006 | 99 | 117 | 0.9 | 4.3 | 0.00 | 0.00 | 0.00 | 35 | 1010.7 |
| 20260901234006 | 99 | 99 | 0.9 | 6.1 | 0.00 | 0.00 | 0.00 | 34 | 1010.8 |
| 20260901232938 | 99 | 42 | 1.7 | 6.1 | 0.00 | 0.00 | 0.00 | 35 | 1010.8 |
| 20260901231936 | 100 | 157 | 1.7 | 6.1 | 0.00 | 0.00 | 0.00 | 35 | 1010.9 |
| 20260901230948 | 100 | 103 | 0.9 | 5.2 | 0.00 | 0.00 | 0.00 | 34 | 1010.9 |
| 20260901225923 | 100 | 125 | 0.9 | 7.8 | 0.00 | 0.00 | 0.00 | 34 | 1010.9 |
| 20260901224913 | 100 | 113 | 1.7 | 7.8 | 0.00 | 0.00 | 0.00 | 34 | 1011.0 |
| 20260901222817 | 101 | 128 | 0.9 | 7.0 | 0.00 | 0.00 | 0.00 | 33 | 1011.0 |
| 20260901221745 | 101 | 36 | 0.9 | 5.2 | 0.00 | 0.00 | 0.00 | 33 | 1011.0 |
| 20260901220714 | 100 | 150 | 0.9 | 5.2 | 0.00 | 0.00 | 0.00 | 33 | 1011.0 |
| 20260901215736 | 100 | 212 | 1.7 | 7.0 | 0.00 | 0.00 | 0.00 | 33 | 1011.1 |
| 20260901214704 | 99 | 74 | 1.7 | 7.8 | 0.00 | 0.00 | 0.00 | 35 | 1011.3 |
| 20260901213634 | 100 | 56 | 0.9 | 7.8 | 0.00 | 0.00 | 0.00 | 35 | 1011.3 |
| 20260901212639 | 99 | 130 | 0.0 | 4.3 | 0.00 | 0.00 | 0.00 | 35 | 1011.4 |
| 20260901211614 | 98 | 194 | 1.7 | 3.5 | 0.00 | 0.00 | 0.00 | 37 | 1011.5 |
| 20260901210540 | 99 | 56 | 0.9 | 5.2 | 0.00 | 0.00 | 0.00 | 36 | 1011.7 |
| 20260901205509 | 99 | 9 | 1.7 | 6.1 | 0.00 | 0.00 | 0.00 | 36 | 1011.7 |
| 20260901204446 | 100 | 152 | 1.7 | 7.0 | 0.00 | 0.00 | 0.00 | 35 | 1011.8 |
| 20260901203441 | 100 | 205 | 1.7 | 7.0 | 0.00 | 0.00 | 0.00 | 36 | 1011.9 |
| 20260901201356 | 99 | 65 | 1.7 | 6.1 | 0.00 | 0.00 | 0.00 | 38 | 1012.1 |
| 20260901200336 | 99 | 43 | 1.7 | 6.1 | 0.00 | 0.00 | 0.00 | 38 | 1012.2 |
| 20260901195318 | 99 | 82 | 1.7 | 7.0 | 0.00 | 0.00 | 0.00 | 38 | 1012.4 |
| 20260901194248 | 99 | 135 | 1.7 | 7.0 | 0.00 | 0.00 | 0.00 | 38 | 1012.5 |
| 20260901193310 | 99 | 150 | 1.7 | 6.1 | 0.00 | 0.00 | 0.00 | 39 | 1012.6 |
| 20260901192325 | 99 | 194 | 1.7 | 7.0 | 0.00 | 0.00 | 0.00 | 36 | 1012.7 |
| 20260901191311 | 99 | 115 | 1.7 | 7.0 | 0.00 | 0.00 | 0.00 | 38 | 1012.8 |
| 20260901190255 | 99 | 198 | 1.7 | 6.1 | 0.00 | 0.00 | 0.00 | 39 | 1013.0 |
| 20260901185314 | 98 | 227 | 1.7 | 7.0 | 0.00 | 0.00 | 0.00 | 38 | 1013.2 |
| 20260901184309 | 99 | 197 | 1.7 | 9.6 | 0.00 | 0.00 | 0.00 | 40 | 1013.4 |
| 20260901183307 | 98 | 215 | 2.6 | 11.3 | 0.00 | 0.00 | 0.00 | 40 | 1013.6 |
| 20260901182248 | 98 | 79 | 1.7 | 11.3 | 0.00 | 0.00 | 0.00 | 41 | 1013.7 |
| 20260901180116 | 97 | 119 | 1.7 | 5.2 | 0.00 | 0.00 | 0.00 | 40 | 1014.0 |
| 20260901175107 | 98 | 123 | 0.9 | 7.0 | 0.00 | 0.00 | 0.00 | 41 | 1014.1 |
| 20260901174110 | 96 | 220 | 1.7 | 7.0 | 0.00 | 0.00 | 0.00 | 43 | 1014.2 |
| 20260901171853 | 97 | 76 | 1.7 | 5.2 | 0.00 | 0.00 | 0.00 | 43 | 1014.5 |
| 20260901170906 | 96 | 236 | 0.9 | 6.1 | 0.00 | 0.00 | 0.00 | 45 | 1014.7 |
| 20260901165848 | 96 | 129 | 1.7 | 6.1 | 0.00 | 0.00 | 0.00 | 44 | 1014.8 |
| 20260901163805 | 95 | 150 | 0.9 | 6.1 | 0.00 | 0.00 | 0.00 | 45 | 1015.0 |
| 20260901162740 | 94 | 173 | 0.9 | 3.5 | 0.00 | 0.00 | 0.00 | 47 | 1015.1 |
| 20260901161751 | 94 | 120 | 1.7 | 5.2 | 0.00 | 0.00 | 0.00 | 47 | 1015.1 |
| 20260901160743 | 94 | 151 | 0.9 | 5.2 | 0.00 | 0.00 | 0.00 | 46 | 1015.2 |
| 20260901155738 | 93 | 122 | 0.9 | 5.2 | 0.00 | 0.00 | 0.00 | 49 | 1015.2 |
| 20260901154735 | 92 | 199 | 0.9 | 5.2 | 0.00 | 0.00 | 0.00 | 50 | 1015.2 |
| 20260901153700 | 92 | 119 | 0.9 | 3.5 | 0.00 | 0.00 | 0.00 | 52 | 1015.0 |
| 20260901152623 | 90 | 257 | 0.9 | 3.5 | 0.00 | 0.00 | 0.00 | 53 | 1015.0 |
| 20260901151621 | 90 | 259 | 0.9 | 2.6 | 0.00 | 0.00 | 0.00 | 54 | 1015.0 |
| 20260901150627 | 89 | 188 | 0.9 | 2.6 | 0.00 | 0.00 | 0.00 | 55 | 1015.2 |
| 20260901145644 | 89 | 111 | 0.0 | 2.6 | 0.00 | 0.00 | 0.00 | 56 | 1015.2 |
| 20260901144644 | 88 | 185 | 0.0 | 1.7 | 0.00 | 0.00 | 0.00 | 57 | 1015.1 |
| 20260901141343 | 86 | 140 | 0.9 | 2.6 | 0.00 | 0.00 | 0.00 | 61 | 1015.3 |
| 20260901135127 | 84 | 219 | 0.0 | 1.7 | 0.00 | 0.00 | 0.00 | 66 | 1015.3 |
| 20260901134050 | 82 | 250 | 0.0 | 0.0 | 0.00 | 0.00 | 0.00 | 70 | 1015.2 |
| 20260901133036 | 80 | 220 | 0.0 | 0.0 | 0.00 | 0.00 | 0.00 | 74 | 1015.2 |
| 20260901130828 | 76 | 240 | 0.0 | 0.0 | 0.00 | 0.00 | 0.00 | 79 | 1014.9 |
| 20260901125831 | 76 | 169 | 0.0 | 0.0 | 0.00 | 0.00 | 0.00 | 79 | 1014.8 |
| 20260901124759 | 75 | 78 | 0.0 | 0.0 | 0.00 | 0.00 | 0.00 | 79 | 1014.7 |
| 20260901123730 | 75 | 78 | 0.0 | 0.0 | 0.00 | 0.00 | 0.00 | 78 | 1014.5 |
| 20260901122707 | 75 | 78 | 0.0 | 0.0 | 0.00 | 0.00 | 0.00 | 78 | 1014.5 |
| 20260901120617 | 75 | 78 | 0.0 | 0.0 | 0.00 | 0.00 | 0.00 | 76 | 1014.3 |
| 20260901115614 | 75 | 78 | 0.0 | 0.0 | 0.00 | 0.00 | 0.00 | 76 | 1014.3 |
| 20260901113504 | 76 | 78 | 0.0 | 0.0 | 0.00 | 0.00 | 0.00 | 74 | 1014.2 |